Temp
68 68 67 69 69 69 69 69 68 68 67 67 68 67 67 68 68 70 69 64 65 67 68 68 67 66 66 64 64 64 64 63 63 64 63 62 62 62 61 61 62 62 61
69 67 65 68 68 71 71 69 68 67 67 66 65 66 66 67 67 67 69 67 62 64 66 67 66 66 65 64 63 63 63 63 63 63 63 62 61 62 61 61 62 61 61
69 66 65 67 70 70 69 67 66 66 66 66 64 64 65 65 65 65 66 67 67 61 62 64 65 66 65 65 64 63 63 62 62 62 62 62 61 61 61 60 60 60 60
69 66 66 69 68 69 69 67 66 65 65 65 64 64 64 64 63 63 64 65 65 66 62 61 62 63 64 64 64 63 63 62 62 61 61 60 60 60 60 59 59 60 59
69 67 67 68 64 67 65 66 65 65 63 63 62 63 63 63 63 64 62 62 62 63 64 57 57 59 63 63 63 63 62 62 61 61 60 60 60 60 60 59 59 59 59
69 67 67 66 64 66 62 61 63 64 64 63 62 60 61 62 62 62 61 62 61 60 62 61 64 63 57 62 62 62 62 62 61 61 60 60 60 59 58 58 59 59 59
69 67 64 63 66 64 60 59 62 60 61 61 60 58 59 60 60 61 62 62 60 60 59 60 63 64 64 59 61 61 62 61 60 60 59 59 59 58 58 58 59 59 59
68 68 64 62 63 61 59 57 58 61 60 61 60 59 55 57 59 60 61 61 58 61 59 58 59 59 61 63 60 59 60 60 60 59 59 58 58 58 58 58 58 58 58
67 68 64 63 62 61 58 58 59 61 58 60 62 62 56 57 57 59 57 60 57 59 59 58 57 57 58 60 59 57 56 57 58 58 59 57 58 58 58 57 57 57 57
66 68 66 63 62 61 59 58 60 63 62 59 60 62 62 62 57 52 57 57 58 57 56 58 57 57 57 59 55 53 52 54 56 57 58 57 57 57 57 57 56 56 56
67 67 66 65 61 61 60 59 59 60 63 63 61 60 60 61 60 60 54 54 56 58 58 57 57 57 56 57 58 54 51 51 53 55 55 56 56 56 55 55 55 55 55
65 65 65 66 65 61 59 59 59 60 63 64 64 63 63 62 61 60 57 55 56 56 57 57 56 57 57 57 55 51 50 50 51 52 53 53 53 53 53 53 53 53 53
63 63 63 64 65 62 61 61 61 62 63 62 62 63 66 65 65 63 61 57 56 56 54 56 56 57 56 57 57 51 49 48 49 50 50 50 50 50 51 51 51 51 52
64 64 64 66 65 64 62 62 64 64 63 63 62 64 66 66 65 64 63 59 55 55 55 55 56 56 57 57 55 49 53 47 48 48 48 48 48 48 48 49 49 50 50
66 64 65 65 65 63 63 63 64 63 63 62 63 63 64 66 65 65 64 65 64 57 56 55 54 55 56 55 54 55 55 48 47 46 47 47 47 47 47 47 47 47 48
68 64 64 65 64 63 62 63 64 64 62 63 64 62 63 66 64 65 64 64 64 64 62 60 56 55 55 55 53 55 54 48 46 45 45 46 46 46 46 46 46 46 46
67 64 64 64 64 63 63 63 63 63 62 63 62 62 63 64 64 64 63 63 62 62 61 56 58 54 53 53 53 54 53 53 53 45 44 44 44 45 45 45 44 44 44
66 66 65 65 64 64 63 62 62 63 61 61 61 62 62 63 62 62 62 60 61 61 61 55 54 52 52 53 54 53 53 55 55 48 45 44 44 44 44 43 43 43 43
65 67 66 64 64 62 62 63 63 62 62 62 63 62 62 62 61 61 60 61 60 60 59 58 53 54 53 53 51 52 52 53 54 49 44 44 44 44 43 43 43 43 43
64 66 65 64 63 63 63 62 63 62 62 63 63 61 63 61 62 60 60 60 59 58 57 57 55 53 53 51 52 50 49 51 52 53 50 48 47 45 44 43 43 43 43
65 66 64 64 64 62 61 62 63 62 62 62 60 61 62 59 53 57 61 60 58 57 56 56 55 53 52 49 48 52 51 53 52 53 53 53 52 51 51 44 46 44 43
64 64 64 63 61 62 49 48 57 62 63 62 60 60 60 50 49 44 45 46 54 57 56 56 56 53 53 53 54 52 50 49 46 55 51 52 54 52 53 54 48 44 43
62 62 62 63 62 63 45 46 47 64 62 61 61 60 59 58 50 56 43 41 42 42 48 57 56 56 56 54 54 51 51 51 51 52 51 49 55 51 55 54 44 43 42
60 61 60 62 63 63 44 44 44 62 61 61 61 61 61 59 55 55 57 55 55 53 53 55 59 60 59 58 55 55 54 53 53 51 51 45 52 49 54 55 44 42 41
58 60 60 61 62 61 42 42 48 61 60 59 59 59 59 59 49 44 55 54 55 54 44 41 42 42 42 43 50 53 47 46 46 47 48 46 47 44 47 47 52 41 40
57 58 59 60 56 61 41 42 50 59 57 57 57 57 43 55 41 40 56 56 53 53 52 50 51 46 43 46 40 54 54 47 47 41 47 41 42 42 38 44 45 47 46
MSLP
1024.94 1025.52 1026.23 1026.69 1027.26 1027.75 1027.99 1028.38 1028.93 1029.27 1029.74 1030.04 1030.18 1030.40 1030.64 1030.81 1030.97 1030.78 1031.20 1031.44 1031.26 1031.25 1031.17 1031.33 1031.56 1031.78 1031.82 1032.05 1031.95 1032.00 1031.82 1031.87 1031.67 1031.62 1031.62 1031.64 1031.54 1031.39 1031.35 1031.21 1030.93 1030.64 1030.68
1024.97 1025.56 1026.38 1026.87 1027.64 1027.87 1028.22 1028.66 1029.12 1029.55 1030.04 1030.50 1030.86 1031.06 1031.27 1031.37 1031.61 1031.67 1031.63 1032.06 1032.12 1032.01 1031.85 1031.77 1031.89 1032.08 1032.34 1032.52 1032.54 1032.54 1032.47 1032.38 1032.27 1032.18 1032.10 1032.10 1032.13 1031.89 1031.80 1031.61 1031.37 1031.34 1031.05
1025.03 1025.71 1026.32 1026.94 1027.47 1028.14 1028.59 1029.12 1029.67 1029.98 1030.47 1031.03 1031.38 1031.66 1031.86 1032.17 1032.34 1032.47 1032.47 1032.43 1032.51 1032.73 1032.66 1032.47 1032.31 1032.27 1032.44 1032.66 1032.90 1032.93 1032.84 1032.83 1032.71 1032.61 1032.65 1032.54 1032.57 1032.40 1032.18 1032.09 1032.07 1031.83 1031.58
1025.07 1025.73 1026.22 1026.61 1027.48 1028.16 1028.72 1029.14 1029.66 1030.08 1030.66 1031.28 1031.72 1032.00 1032.32 1032.65 1033.05 1033.21 1033.17 1033.08 1033.17 1033.14 1033.41 1033.27 1033.12 1032.87 1032.79 1032.85 1033.03 1033.12 1033.17 1033.24 1033.21 1033.22 1033.16 1033.15 1033.06 1032.94 1032.79 1032.69 1032.50 1032.27 1032.09
1024.98 1025.58 1026.09 1026.81 1027.57 1027.92 1028.95 1029.27 1029.84 1030.25 1030.80 1031.50 1032.16 1032.48 1032.70 1033.02 1033.35 1033.66 1033.80 1033.83 1033.94 1033.77 1033.69 1034.03 1033.77 1033.62 1033.36 1033.22 1033.22 1033.36 1033.45 1033.54 1033.59 1033.63 1033.64 1033.51 1033.39 1033.23 1033.09 1033.02 1032.87 1032.67 1032.49
1024.75 1025.44 1026.06 1027.04 1027.57 1027.75 1028.95 1029.59 1029.88 1030.58 1030.99 1031.44 1032.31 1033.05 1033.27 1033.55 1033.87 1034.03 1034.23 1034.24 1034.32 1034.33 1034.17 1034.21 1033.97 1033.97 1034.20 1033.77 1033.67 1033.64 1033.73 1033.80 1033.94 1033.98 1033.96 1033.88 1033.77 1033.75 1033.59 1033.43 1033.22 1033.05 1032.77
1024.46 1025.06 1026.00 1026.87 1027.34 1027.90 1028.65 1029.70 1029.99 1030.52 1031.30 1031.86 1032.21 1033.15 1033.66 1034.05 1034.21 1034.29 1034.46 1034.42 1034.50 1034.66 1034.63 1034.57 1034.38 1034.37 1034.36 1034.34 1034.23 1034.09 1033.99 1034.16 1034.29 1034.37 1034.34 1034.20 1034.11 1034.03 1033.86 1033.65 1033.39 1033.24 1032.91
1024.13 1024.64 1025.52 1026.43 1027.03 1027.85 1028.80 1029.60 1029.93 1030.33 1031.27 1031.49 1031.37 1032.27 1032.95 1033.98 1034.19 1034.30 1034.47 1034.53 1034.62 1034.73 1034.81 1034.93 1034.87 1034.85 1034.79 1034.67 1034.79 1034.71 1034.61 1034.58 1034.59 1034.58 1034.59 1034.63 1034.53 1034.40 1034.08 1033.99 1033.84 1033.60 1033.35
1023.73 1024.15 1025.03 1025.79 1026.60 1027.35 1028.26 1028.91 1029.38 1029.54 1030.08 1031.10 1031.17 1030.98 1031.88 1031.79 1033.07 1034.01 1034.30 1034.33 1034.66 1034.71 1034.95 1035.07 1035.18 1035.20 1035.26 1035.18 1035.23 1035.31 1035.26 1035.04 1035.00 1034.95 1034.77 1034.93 1034.70 1034.59 1034.41 1034.32 1034.18 1034.02 1033.83
1023.25 1023.68 1024.49 1025.24 1026.08 1026.84 1027.75 1028.40 1028.93 1028.95 1029.36 1029.95 1030.88 1031.09 1031.30 1031.23 1031.66 1032.98 1033.84 1034.23 1034.48 1034.70 1034.92 1034.92 1035.17 1035.37 1035.44 1035.30 1035.54 1035.73 1035.82 1035.61 1035.30 1035.14 1034.97 1035.00 1034.94 1034.86 1034.83 1034.66 1034.60 1034.51 1034.27
1022.63 1023.28 1023.85 1024.66 1025.65 1026.34 1027.12 1027.70 1028.57 1028.86 1029.09 1029.24 1029.74 1030.37 1030.92 1031.07 1031.28 1031.30 1032.15 1033.25 1034.06 1034.30 1034.52 1034.78 1034.85 1035.09 1035.38 1035.38 1035.53 1035.88 1036.09 1035.98 1035.75 1035.49 1035.33 1035.26 1035.26 1035.27 1035.25 1035.13 1035.05 1034.88 1034.73
1021.95 1022.58 1023.40 1023.96 1024.75 1025.74 1026.49 1027.16 1027.84 1028.32 1028.52 1028.99 1029.42 1029.69 1029.69 1029.90 1030.24 1030.60 1031.28 1032.23 1032.68 1033.64 1034.03 1034.41 1034.77 1034.84 1035.08 1035.33 1035.65 1036.04 1036.21 1036.20 1036.09 1035.86 1035.80 1035.76 1035.79 1035.73 1035.66 1035.53 1035.42 1035.34 1035.17
1021.28 1021.84 1022.72 1023.47 1024.11 1024.99 1025.76 1026.44 1027.10 1027.59 1028.08 1028.54 1028.87 1029.10 1029.35 1029.54 1029.74 1030.10 1030.43 1031.32 1031.99 1033.16 1033.76 1034.05 1034.30 1034.51 1034.71 1034.89 1035.01 1035.67 1036.03 1036.19 1036.12 1036.05 1036.07 1036.16 1036.17 1036.17 1036.03 1035.81 1035.49 1035.37 1035.31
1020.17 1020.86 1021.84 1022.59 1023.38 1024.29 1025.13 1025.85 1026.22 1026.72 1027.44 1028.11 1028.46 1028.68 1028.89 1029.15 1029.41 1029.63 1029.71 1030.29 1031.22 1031.98 1032.63 1032.78 1033.62 1033.96 1034.12 1034.34 1034.56 1035.45 1035.57 1035.98 1036.01 1036.07 1036.18 1036.31 1036.31 1036.32 1036.16 1035.95 1035.90 1035.78 1035.68
1019.21 1020.11 1020.78 1021.63 1022.55 1023.54 1024.37 1025.12 1025.47 1026.19 1026.92 1027.62 1027.92 1028.26 1028.52 1028.65 1029.06 1029.16 1029.50 1029.58 1029.48 1030.19 1030.87 1031.98 1032.46 1033.31 1033.68 1034.06 1034.32 1034.70 1035.03 1035.58 1035.76 1035.99 1036.13 1036.22 1036.32 1036.24 1036.23 1036.20 1036.12 1036.05 1035.97
1018.30 1019.40 1020.03 1020.75 1021.79 1022.67 1023.64 1024.40 1024.87 1025.51 1026.20 1026.78 1027.33 1027.79 1028.10 1028.17 1028.63 1028.80 1029.15 1029.29 1029.47 1029.35 1029.56 1030.77 1031.70 1032.34 1033.04 1033.45 1034.02 1034.32 1034.72 1035.34 1035.57 1035.69 1035.83 1036.03 1036.07 1036.16 1036.25 1036.31 1036.27 1036.17 1035.99
1017.43 1018.39 1019.09 1020.06 1021.09 1021.90 1022.85 1023.62 1024.13 1024.70 1025.53 1026.06 1026.77 1027.19 1027.47 1027.78 1028.04 1028.43 1028.70 1028.99 1029.10 1029.29 1029.31 1030.83 1031.29 1032.16 1032.72 1032.98 1033.45 1033.95 1034.34 1034.61 1034.72 1035.39 1035.58 1035.67 1035.92 1036.07 1036.34 1036.48 1036.37 1036.24 1036.08
1016.66 1017.42 1018.23 1019.24 1020.21 1021.00 1021.96 1022.70 1023.41 1023.97 1024.65 1025.27 1025.87 1026.55 1026.81 1027.39 1027.69 1028.07 1028.23 1028.55 1028.69 1029.03 1029.08 1029.85 1030.94 1031.79 1032.09 1032.64 1032.87 1033.22 1033.65 1033.97 1034.11 1034.70 1035.10 1035.35 1035.53 1035.69 1035.73 1035.66 1035.67 1035.57 1035.49
1016.10 1016.84 1017.36 1018.28 1019.16 1020.07 1021.16 1021.91 1022.53 1023.12 1023.87 1024.45 1025.02 1025.59 1026.02 1026.64 1027.06 1027.56 1027.74 1028.09 1028.34 1028.78 1029.07 1029.38 1030.41 1031.29 1031.72 1032.22 1032.60 1032.98 1033.15 1033.47 1033.69 1034.09 1034.65 1034.75 1034.83 1034.99 1035.01 1035.06 1035.11 1035.13 1035.16
1015.43 1016.27 1016.29 1017.22 1018.31 1019.29 1020.25 1021.06 1021.81 1022.49 1023.17 1023.71 1024.20 1024.64 1025.08 1025.70 1026.10 1026.82 1027.10 1027.42 1027.83 1028.30 1028.85 1029.05 1029.56 1030.31 1030.99 1031.68 1031.84 1032.05 1032.45 1032.64 1032.69 1033.17 1033.53 1033.55 1033.73 1033.96 1034.18 1034.30 1034.38 1034.40 1034.43
1014.61 1015.34 1015.82 1016.69 1017.59 1018.65 1019.40 1020.12 1020.90 1021.64 1022.37 1022.98 1023.55 1023.90 1024.29 1024.83 1025.52 1025.88 1026.15 1026.69 1027.32 1027.81 1028.24 1028.52 1028.66 1029.07 1029.72 1030.66 1030.71 1031.04 1031.08 1031.33 1031.81 1032.11 1032.24 1032.17 1032.59 1032.77 1032.67 1033.24 1033.22 1033.35 1033.44
1013.91 1014.83 1015.40 1015.86 1016.88 1017.74 1018.43 1019.17 1020.01 1020.81 1021.48 1022.05 1022.49 1023.22 1023.76 1024.97 1025.55 1026.19 1026.42 1026.52 1026.46 1026.88 1027.35 1027.69 1027.94 1027.87 1028.02 1028.90 1029.70 1030.01 1030.52 1030.60 1030.88 1030.91 1031.49 1031.09 1031.35 1031.13 1031.12 1031.23 1031.33 1031.75 1032.10
1013.34 1014.10 1014.85 1015.15 1015.93 1016.89 1017.80 1018.61 1019.37 1020.10 1020.64 1021.06 1021.64 1022.38 1023.21 1023.87 1024.85 1025.13 1026.48 1026.81 1026.96 1027.14 1026.83 1026.98 1026.87 1027.15 1027.23 1027.44 1028.47 1029.20 1029.42 1029.44 1029.58 1030.48 1030.79 1030.15 1030.06 1030.19 1030.10 1030.04 1030.46 1030.72 1031.13
1012.42 1013.41 1014.13 1014.50 1015.20 1016.17 1017.07 1018.09 1018.70 1019.54 1020.06 1020.37 1020.87 1021.60 1022.22 1023.01 1023.75 1024.44 1025.16 1025.81 1026.02 1026.39 1026.69 1026.79 1026.35 1026.27 1026.75 1026.90 1027.37 1027.86 1028.39 1028.76 1029.12 1029.91 1030.42 1029.75 1029.35 1029.35 1029.18 1029.11 1029.37 1029.76 1030.18
1012.08 1012.82 1013.38 1013.64 1014.51 1015.41 1016.42 1017.42 1018.34 1019.10 1019.55 1019.90 1020.40 1020.98 1021.60 1022.32 1022.90 1024.15 1024.45 1024.86 1025.28 1025.60 1026.43 1026.69 1026.96 1026.99 1027.08 1027.17 1027.10 1027.87 1028.32 1028.67 1028.72 1028.96 1029.65 1029.73 1029.12 1029.11 1028.83 1028.53 1028.41 1028.86 1029.42
1011.33 1012.21 1012.80 1013.04 1013.72 1014.47 1015.85 1016.81 1017.69 1018.40 1018.90 1019.34 1019.95 1020.45 1020.96 1021.55 1022.43 1023.50 1023.72 1024.09 1024.33 1024.35 1025.36 1026.01 1026.12 1026.72 1027.06 1027.16 1027.38 1026.91 1027.25 1027.65 1028.07 1028.49 1028.51 1029.16 1029.01 1029.08 1028.55 1028.19 1028.16 1028.14 1028.28
Wind_Speed
8 8 8 9 8 9 10 10 11 10 11 11 11 12 12 12 12 8 9 19 17 17 17 18 17 17 17 16 17 16 17 17 15 18 18 18 18 18 17 16 18 20 20
9 9 8 10 9 9 10 10 10 10 9 10 11 11 11 10 10 10 8 12 19 17 17 16 16 17 16 16 16 16 15 16 14 16 18 17 17 17 18 16 19 19 18
10 10 9 10 10 9 12 11 10 10 10 9 11 10 10 11 10 10 8 8 10 17 16 16 15 15 15 14 14 14 15 14 15 17 16 16 16 16 16 17 18 17 19
11 10 9 11 10 10 10 10 10 10 10 9 9 8 9 10 10 9 8 7 7 7 10 15 15 13 15 13 14 14 13 14 14 14 16 14 16 16 18 16 16 17 16
12 10 9 10 10 10 9 9 9 10 10 9 9 8 8 8 8 7 9 9 9 7 6 9 14 18 13 13 13 12 13 13 13 13 13 14 13 15 16 16 15 16 16
12 10 9 12 9 10 10 8 12 10 10 11 9 8 7 6 6 6 6 6 7 7 7 6 5 7 14 10 12 11 12 12 13 13 13 12 12 15 14 14 13 15 14
12 12 9 10 10 11 10 10 11 14 10 10 9 7 6 5 5 4 4 5 6 6 7 6 4 4 5 12 10 10 11 12 11 11 12 9 13 11 12 9 14 13 14
12 11 12 11 11 10 12 12 13 12 9 11 7 6 5 4 4 4 3 4 5 4 5 6 6 6 4 5 8 8 10 9 10 10 10 11 10 10 9 12 12 13 13
12 11 13 12 12 11 11 13 12 14 11 11 13 3 5 4 7 4 6 4 5 3 4 5 5 5 4 4 4 6 6 7 8 8 8 8 7 7 9 11 11 11 12
14 12 14 13 13 10 12 11 10 12 13 13 11 3 2 6 4 5 5 5 5 5 5 4 4 4 4 3 5 7 7 5 5 5 6 6 6 7 8 9 10 10 11
14 13 15 15 13 10 12 14 13 11 12 11 11 6 5 4 4 3 5 6 5 5 5 5 4 4 5 4 4 6 5 6 5 5 4 4 5 6 7 8 8 9 10
10 13 14 15 15 12 14 13 13 15 13 11 11 8 6 5 6 4 3 5 6 6 6 5 6 5 4 5 4 6 5 5 4 4 3 3 5 5 5 7 7 7 8
8 13 15 14 13 14 13 13 14 15 14 13 14 10 6 5 4 4 4 5 4 4 6 6 6 6 5 5 6 7 8 5 4 3 2 3 3 3 4 4 4 5 7
12 15 15 15 17 15 13 13 13 12 13 12 15 11 7 7 6 5 4 6 5 5 6 5 8 8 7 7 6 10 7 7 6 4 4 3 2 1 1 1 3 5 5
12 16 17 16 18 15 16 16 11 14 13 13 13 14 10 7 6 6 5 6 4 5 7 9 6 11 8 7 8 9 7 10 8 7 6 5 4 3 2 1 2 3 4
17 16 17 17 17 16 15 16 13 15 15 12 11 15 13 10 9 6 7 7 5 6 4 3 8 7 10 8 10 9 8 8 10 9 8 7 7 6 4 3 1 0 1
18 18 18 17 18 18 17 16 15 15 17 15 14 14 15 12 8 7 7 7 7 6 5 3 4 6 11 11 10 9 8 8 7 11 10 9 8 7 6 5 4 3 3
18 19 19 18 17 18 16 17 17 14 16 15 16 15 15 9 11 9 8 10 8 8 5 7 6 7 8 12 10 11 9 8 7 11 12 11 10 10 9 9 9 8 8
16 18 19 18 17 16 17 17 17 16 15 15 16 16 15 14 12 9 10 8 7 6 5 5 5 5 5 8 10 9 9 9 8 8 12 12 12 13 13 13 13 12 11
16 17 18 17 17 17 17 17 16 15 15 15 15 15 16 15 15 14 11 11 8 8 7 6 6 6 6 6 9 9 9 9 9 9 12 10 12 17 17 16 16 16 15
16 18 16 15 15 15 13 17 16 16 16 15 14 14 13 14 14 13 10 11 10 9 7 8 7 6 7 6 12 8 9 8 9 9 9 9 10 11 12 18 18 20 18
16 16 17 17 16 12 16 18 17 15 16 16 14 14 12 11 10 11 11 9 12 13 12 9 9 9 11 10 8 9 8 8 6 9 10 10 10 11 11 11 15 18 19
15 17 16 17 17 17 18 19 18 14 14 13 13 13 12 9 12 12 10 9 9 7 8 12 12 11 10 12 11 11 11 10 6 4 8 7 8 10 10 10 14 17 20
16 16 16 17 15 14 19 20 19 14 12 14 14 15 15 14 14 14 13 12 12 12 12 8 10 9 9 9 12 11 12 10 5 5 7 6 5 8 8 9 12 17 20
13 15 15 16 17 14 18 20 19 14 12 14 12 13 14 14 14 15 13 13 12 11 5 6 5 1 6 8 9 8 7 7 6 6 8 4 4 5 5 7 8 13 16
14 12 13 14 15 15 18 20 19 10 12 9 11 12 12 15 16 18 15 14 14 13 11 9 9 7 7 8 12 11 8 8 5 3 8 7 4 4 4 3 4 4 7
Wind_Direction
139 136 131 142 129 131 128 123 122 114 110 105 100 96 90 87 88 85 80 56 72 81 90 89 84 77 72 73 72 68 72 72 67 70 74 68 62 63 60 53 47 47 47
145 135 136 138 137 138 131 130 128 121 113 110 101 96 92 90 86 90 86 71 57 63 72 80 90 84 80 78 77 72 72 74 66 69 74 64 60 60 53 50 49 45 43
150 141 142 145 146 138 133 127 125 118 115 108 104 101 97 90 85 84 89 86 79 50 54 57 64 93 84 87 86 82 77 77 64 74 77 66 64 65 58 51 54 46 41
144 146 151 151 146 146 143 138 137 127 122 119 113 104 98 95 90 87 84 86 85 90 71 42 48 72 85 92 88 84 83 81 74 68 66 72 67 57 58 53 50 51 42
149 151 157 151 150 148 143 147 141 136 131 122 115 107 104 100 98 93 89 87 80 74 77 55 41 43 67 74 86 90 87 80 81 77 74 64 67 69 60 59 53 50 41
156 152 154 154 150 153 148 149 145 140 134 129 119 104 97 99 102 101 100 94 87 80 79 77 75 63 35 69 77 86 86 83 80 80 73 71 66 68 65 55 61 51 52
164 159 144 151 161 157 151 148 145 142 140 136 126 110 99 102 116 116 118 112 101 87 81 74 87 88 78 55 61 71 82 85 84 75 76 72 72 62 65 61 53 46 44
174 164 155 161 159 149 150 152 159 150 145 170 143 135 148 149 162 162 161 143 117 110 97 83 88 88 85 72 53 54 71 83 86 88 82 74 74 58 54 57 51 46 43
180 169 165 164 162 157 163 164 167 169 159 180 176 149 163 186 154 173 187 181 157 140 120 105 91 95 99 96 107 85 54 68 79 85 81 79 74 78 65 57 53 47 43
182 184 169 166 165 164 165 173 176 179 166 176 182 222 260 137 181 170 190 192 193 191 163 138 126 126 132 126 99 69 48 49 102 107 89 99 77 68 62 58 54 49 43
183 190 175 168 168 172 172 171 175 180 186 177 183 160 165 165 167 164 169 174 198 201 184 175 163 161 156 152 148 114 64 43 63 81 71 76 71 64 55 53 51 48 46
181 185 182 177 173 173 170 176 180 185 185 190 187 187 177 173 180 172 140 171 193 188 193 187 192 179 165 169 165 135 121 78 89 93 78 73 63 56 48 50 46 47 47
186 179 179 180 177 177 179 179 180 187 189 193 191 193 196 207 179 173 147 142 171 174 199 206 200 190 180 181 165 187 164 146 150 136 128 98 82 61 55 51 52 52 49
183 176 181 183 184 180 178 184 183 187 190 199 196 197 200 204 192 187 168 161 162 182 189 175 196 199 190 185 164 180 175 180 171 168 176 166 142 121 92 62 54 52 48
184 179 180 182 184 179 184 185 188 191 194 201 204 205 208 191 201 199 202 201 209 188 206 189 181 198 194 178 173 190 195 175 190 185 193 192 201 202 203 195 68 55 49
181 182 178 183 184 182 185 189 190 194 196 200 207 207 214 219 226 218 213 216 225 249 252 155 205 175 190 187 173 194 195 191 198 199 198 206 213 220 218 220 195 134 42
180 182 178 181 184 184 188 191 193 191 201 202 208 211 215 215 219 218 209 215 213 217 233 159 178 168 186 191 183 196 191 206 195 206 205 210 219 226 225 231 232 233 236
184 184 179 182 186 187 187 191 194 193 199 203 204 211 215 210 218 218 205 210 211 205 205 177 176 177 197 200 195 195 200 211 218 189 208 213 217 223 220 221 228 225 226
188 189 180 183 185 184 187 195 197 195 201 204 206 206 207 205 211 211 207 208 203 194 195 179 152 174 183 196 198 209 208 219 222 204 214 218 218 223 226 226 231 233 233
187 195 183 183 185 186 190 192 195 197 201 206 206 202 203 203 205 205 203 208 197 195 195 194 177 170 188 179 203 204 209 217 225 220 222 236 220 222 229 230 231 233 232
192 196 183 186 184 187 189 188 192 195 200 203 201 200 201 203 201 202 195 199 192 196 197 200 195 182 185 182 202 202 218 213 220 229 229 225 224 229 230 231 242 234 231
190 191 194 185 183 193 182 180 183 193 199 200 196 201 199 189 191 194 207 192 194 192 201 204 210 211 199 203 196 197 206 201 233 206 225 240 225 236 237 233 232 229 221
186 194 197 187 191 195 173 178 179 190 192 196 196 195 196 200 196 203 202 193 201 222 221 201 208 215 204 194 188 195 203 203 214 157 207 245 221 241 244 239 226 226 226
188 194 195 193 190 193 169 175 177 190 196 198 198 199 200 196 197 194 196 204 211 210 217 216 230 225 221 185 190 197 203 212 215 200 221 257 226 249 252 246 222 225 229
189 198 199 186 190 185 173 174 172 190 200 202 198 199 202 201 186 185 191 198 204 212 203 234 272 254 187 177 184 168 183 188 219 214 198 242 222 246 244 255 259 210 233
190 193 194 190 189 182 175 172 180 187 196 195 198 205 201 200 170 177 197 199 209 206 199 202 212 215 202 193 186 206 197 207 197 219 196 199 202 208 278 201 226 236 228